Tracking 29892 objects as of 21-Nov-2024
HD Live streaming from Space Station
objects crossing your sky now

OPS 7869 (DMSP 4B F1)

Track OPS 7869 (DMSP 4B F1) now!
10-day predictions
OPS 7869 (DMSP 4B F1) is classified as:


NORAD ID: 3266
Int'l Code: 1968-042A
Perigee: 808.7 km
Apogee: 885.5 km
Inclination: 98.6 °
Period: 101.7 minutes
Semi major axis: 7218 km
RCS: 0.6432 m2 (medium)
Launch date: May 23, 1968
Source: United States (US)
Launch site: AIR FORCE WESTERN TEST RANGE (AFWTR)
Your satellite tracking list
Your tracking list is empty




NASA's NSSDC Master Catalog

Two Line Element Set (TLE):
1  3266U 68042A   24325.54862665  .00000171  00000-0  10712-3 0  9998
2  3266  98.5838 167.2468 0053139 149.5357 210.8923 14.15691148832377
Source of the keplerian elements: AFSPC